KD0QNG Weather Reports


time (UTC)temp
C
wind
direction
speed
KPH
gust
KPH
rain 1hr
cm
rain 24hr
cm
rain mn
cm
humidity
%
barometer
mb
20260505140257 10 71 4.8 4.8 0.00 0.00 0.00 70 1012.8
20260505130303 10 21 3.2 4.8 0.00 0.00 0.00 71 1011.5
20260505124242 10 33 8.0 12.9 0.00 0.00 0.00 70 1010.9
20260505123257 10 38 3.2 4.8 0.00 0.00 0.00 69 1011.6
20260505122238 11 72 4.8 9.7 0.00 0.00 0.00 65 1011.3
20260505121237 11 42 4.8 8.0 0.00 0.00 0.00 61 1011.4
20260505120238 11 42 6.4 11.3 0.00 0.00 0.00 62 1011.4
20260505115237 11 46 3.2 4.8 0.00 0.00 0.00 62 1010.7
20260505114243 11 71 1.6 3.2 0.00 0.00 0.00 62 1010.3
20260505113224 11 40 9.7 14.5 0.00 0.00 0.00 61 1010.5
20260505112225 11 81 4.8 4.8 0.00 0.00 0.00 61 1009.8
20260505111242 11 28 9.7 11.3 0.00 0.00 0.00 61 1009.5
20260505110220 11 128 4.8 4.8 0.00 0.00 0.00 61 1009.3
20260505102210 11 16 11.3 14.5 0.00 0.00 0.00 61 1008.8
20260505101211 12 223 8.0 9.7 0.00 0.00 0.00 61 1008.6
20260505100208 12 294 6.4 8.0 0.00 0.00 0.00 59 1008.8
20260505095210 12 45 4.8 4.8 0.00 0.00 0.00 60 1009.0
20260505094209 12 101 3.2 4.8 0.00 0.00 0.00 63 1008.8
20260505093231 12 62 3.2 3.2 0.00 0.00 0.00 64 1008.5
20260505092232 12 98 4.8 4.8 0.00 0.00 0.00 65 1008.5
20260505091157 12 39 4.8 8.0 0.00 0.00 0.00 65 1008.3
20260505090155 12 356 8.0 11.3 0.00 0.00 0.00 65 1008.3
20260505085217 12 55 8.0 11.3 0.00 0.00 0.00 66 1008.1
20260505084152 12 7 9.7 11.3 0.00 0.00 0.00 67 1008.1
20260505083231 13 29 4.8 4.8 0.00 0.00 0.00 69 1008.2
20260505082149 13 128 4.8 8.0 0.00 0.00 0.00 69 1007.6
20260505081150 13 352 3.2 8.0 0.00 0.00 0.00 72 1007.6
20260505080223 13 40 8.0 11.3 0.00 0.00 0.00 73 1007.2
20260505075132 13 328 8.0 11.3 0.00 0.00 0.00 74 1007.8
20260505074130 13 332 4.8 8.0 0.00 0.00 0.00 76 1007.8
20260505073229 13 30 4.8 4.8 0.00 0.00 0.00 77 1008.1
20260505072228 14 68 4.8 4.8 0.00 0.00 0.00 78 1007.7
20260505071226 15 13 3.2 4.8 0.00 0.00 0.00 81 1007.0
20260505070220 15 19 6.4 8.0 0.00 0.00 0.00 81 1006.8
20260505065204 15 43 1.6 3.2 0.00 0.00 0.00 80 1006.8
20260505064202 15 0.0 0.0 0.00 0.00 0.00 79 1006.6
20260505063204 16 130 3.2 3.2 0.00 0.00 0.00 79 1006.3
20260505062203 15 134 3.2 3.2 0.00 0.00 0.00 79 1006.3
20260505061157 15 23 1.6 1.6 0.00 0.00 0.00 79 1005.8
20260505060156 16 47 3.2 3.2 0.00 0.00 0.00 78 1005.5
20260505055157 16 56 3.2 4.8 0.00 0.00 0.00 77 1005.4
20260505054156 16 45 3.2 4.8 0.00 0.00 0.00 76 1005.8
20260505053158 17 143 0.0 1.6 0.00 0.00 0.00 73 1005.9
20260505052158 17 84 4.8 4.8 0.00 0.00 0.00 72 1006.1
20260505051215 18 40 3.2 3.2 0.00 0.00 0.00 70 1005.6
20260505050157 19 266 4.8 4.8 0.00 0.00 0.00 67 1005.4
20260505041229 21 0.0 0.0 0.00 0.00 0.00 75 1004.3
20260505040228 21 0.0 0.0 0.00 0.00 0.00 74 1004.4
20260505035242 21 0.0 0.0 0.00 0.00 0.00 74 1004.0
20260505034244 21 0.0 0.0 0.00 0.00 0.00 72 1004.3
20260505033209 21 178 0.0 1.6 0.00 0.00 0.00 71 1004.5
20260505032251 22 159 1.6 3.2 0.00 0.00 0.00 71 1004.4
20260505031212 22 176 1.6 1.6 0.00 0.00 0.00 70 1004.4
20260505030210 22 0.0 0.0 0.00 0.00 0.00 68 1004.6
20260505025204 22 0.0 0.0 0.00 0.00 0.00 67 1004.4
20260505024243 22 0.0 0.0 0.00 0.00 0.00 66 1004.7
20260505023221 22 149 1.6 3.2 0.00 0.00 0.00 65 1004.5
20260505022202 22 189 4.8 11.3 0.00 0.00 0.00 65 1003.9
20260505021203 23 153 4.8 4.8 0.00 0.00 0.00 63 1003.7
20260505020158 23 116 9.7 11.3 0.00 0.00 0.00 62 1003.9
20260505015202 23 143 4.8 8.0 0.00 0.00 0.00 61 1004.0
20260505014203 22 0.0 0.0 0.00 0.00 0.00 62 1003.6
20260505013155 23 0.0 0.0 0.00 0.00 0.00 61 1003.3
20260505012153 23 0.0 0.0 0.00 0.00 0.00 59 1003.3
20260505011141 24 0.0 0.0 0.00 0.00 0.00 57 1003.2
20260505010142 24 0.0 0.0 0.00 0.00 0.00 57 1002.9
20260505005139 25 135 1.6 3.2 0.00 0.00 0.00 56 1002.6
20260505004130 25 133 3.2 3.2 0.00 0.00 0.00 55 1002.7
20260505003227 25 179 4.8 4.8 0.00 0.00 0.00 53 1002.6
20260505002248 25 151 6.4 11.3 0.00 0.00 0.00 53 1003.0
20260505001227 26 182 6.4 8.0 0.00 0.00 0.00 52 1003.3
20260505000229 26 182 3.2 4.8 0.00 0.00 0.00 51 1003.1
20260504235230 26 171 6.4 8.0 0.00 0.00 0.00 50 1003.1
20260504234229 26 176 9.7 12.9 0.00 0.00 0.00 50 1003.1
20260504233228 27 158 9.7 12.9 0.00 0.00 0.00 48 1003.2
20260504232229 27 139 4.8 4.8 0.00 0.00 0.00 49 1003.2
20260504231227 27 135 3.2 4.8 0.00 0.00 0.00 48 1002.9
20260504230223 27 185 14.5 16.1 0.00 0.00 0.00 46 1003.1
20260504225221 27 148 9.7 11.3 0.00 0.00 0.00 47 1003.0
20260504224223 28 111 3.2 4.8 0.00 0.00 0.00 46 1003.0
20260504223217 28 137 8.0 11.3 0.00 0.00 0.00 45 1002.7
20260504222215 30 139 3.2 4.8 0.00 0.00 0.00 43 1002.5
20260504221217 30 0.0 0.0 0.00 0.00 0.00 41 1002.6
20260504220209 30 221 3.2 3.2 0.00 0.00 0.00 38 1002.7
20260504215208 30 0.0 0.0 0.00 0.00 0.00 40 1002.9
20260504214206 30 219 6.4 8.0 0.00 0.00 0.00 40 1003.1
20260504213203 30 0.0 0.0 0.00 0.00 0.00 41 1003.2
20260504212202 30 193 4.8 4.8 0.00 0.00 0.00 41 1003.3
20260504211155 29 0.0 0.0 0.00 0.00 0.00 38 1003.2
20260504210138 28 0.0 0.0 0.00 0.00 0.00 41 1003.7
20260504205156 28 222 4.8 4.8 0.00 0.00 0.00 39 1003.9
20260504204138 28 0.0 0.0 0.00 0.00 0.00 39 1004.1
20260504203136 28 190 0.0 1.6 0.00 0.00 0.00 40 1004.5
20260504202137 28 0.0 0.0 0.00 0.00 0.00 39 1004.4
20260504201137 28 175 4.8 4.8 0.00 0.00 0.00 41 1004.7
20260504200135 28 160 3.2 4.8 0.00 0.00 0.00 41 1004.7
20260504195137 28 145 4.8 4.8 0.00 0.00 0.00 39 1005.0
20260504194136 27 0.0 0.0 0.00 0.00 0.00 42 1005.2
20260504193230 28 162 1.6 1.6 0.00 0.00 0.00 40 1005.4
20260504192223 28 213 3.2 4.8 0.00 0.00 0.00 43 1005.3
20260504191239 28 73 4.8 4.8 0.00 0.00 0.00 42 1005.4
20260504190209 27 127 4.8 8.0 0.00 0.00 0.00 43 1005.6
20260504185202 27 174 1.6 1.6 0.00 0.00 0.00 45 1005.8
20260504184204 27 166 4.8 9.7 0.00 0.00 0.00 44 1005.7
20260504183202 26 273 4.8 4.8 0.00 0.00 0.00 46 1006.1
20260504182158 26 248 6.4 8.0 0.00 0.00 0.00 45 1006.0
20260504181215 25 183 4.8 8.0 0.00 0.00 0.00 49 1006.0
20260504180157 25 268 3.2 4.8 0.00 0.00 0.00 47 1005.9
20260504175149 26 192 3.2 3.2 0.00 0.00 0.00 49 1005.8
20260504174150 26 214 9.7 11.3 0.00 0.00 0.00 48 1006.1
20260504173136 25 250 8.0 11.3 0.00 0.00 0.00 47 1006.3
20260504172031 26 225 4.8 4.8 0.00 0.00 0.00 49 1006.2
20260504171129 25 144 6.4 9.7 0.00 0.00 0.00 48 1006.1
20260504170128 25 246 11.3 12.9 0.00 0.00 0.00 50 1006.3
20260504160129 21 133 1.6 3.2 0.00 0.00 0.00 55 1006.3
20260504151109 21 221 6.4 8.0 0.00 0.00 0.00 57 1006.2
20260504150111 21 242 6.4 8.0 0.00 0.00 0.00 57 1006.0